Regional Weather Roundup
Issued by NWS Northern Indiana

Home | Current Version | Previous Version | Text Only | Print | Product List | Glossary On
Versions: 1 2 3 4 5 6 7 8 9 10 11 12 13 14 15 16 17 18 19 20 21 22 23 24 25 26 27 28 29 30 31 32 33 34 35 36 37 38 39 40 41 42 43 44 45 46 47 48 49 50
000
ASUS43 KIWX 020010
RWRIWX

KIWX WEATHER ROUNDUP
NATIONAL WEATHER SERVICE NORTHERN INDIANA
800 PM EDT MON SEP 01 2014

NOTE: "FAIR" INDICATES FEW OR NO CLOUDS BELOW 12,000 FEET WITH NO
SIGNIFICANT WEATHER AND/OR OBSTRUCTIONS TO VISIBILITY.

* THESE STATIONS ARE NOT UNDER NWS QUALITY CONTROL. THEY ALSO MAY NOT
  REPORT WEATHER SUCH AS PRECIPITATION OR FOG.

INZ001>027-020100-
NORTHERN INDIANA

CITY           SKY/WX    TMP DP  RH WIND       PRES   REMARKS
GARY*          PTCLDY    81  64  57 SW12G23   29.81R
VALPARAISO     PTCLDY    78  66  66 W10       29.83R
6HR MIN TEMP:  78; 6HR MAX TEMP:  84;

MICHIGAN CITY* PTCLDY    77  63  61 SW7       29.81R
LAPORTE*       CLEAR     76  65  67 W7        29.82R
6HR MIN TEMP:  74; 6HR MAX TEMP:  82;

KNOX*          CLEAR     77  66  69 SW10      29.81R
6HR MIN TEMP:  41; 6HR MAX TEMP:  88;

SOUTH BEND     PTCLDY    79  66  64 SW9       29.81R
6HR MIN TEMP:  77; 6HR MAX TEMP:  84; 6HR PCP:  0.03;

GOSHEN         PTCLDY    80  67  64 SW10      29.81S
6HR MIN TEMP:  79; 6HR MAX TEMP:  85; 6HR PCP:  0.01;

MONTICELLO*    CLEAR     77  66  70 SW7       29.84S
6HR MIN TEMP:  77; 6HR MAX TEMP:  83;

LOGANSPORT*    PTCLDY    75  63  64 SW8G16    29.86S
ROCHESTER*     PTCLDY    79  66  65 SW8       29.84S
WARSAW*        PTCLDY    79  66  65 SW8       29.83R
ANGOLA*        PTCLDY    79  72  78 SW6       29.81S
FORT WAYNE     MOCLDY    78  70  76 SW13      29.85R
6HR MIN TEMP:  78; 6HR MAX TEMP:  83; 6HR PCP: TRACE;

HUNTINGTON*    PTCLDY    77  70  79 W8        29.85R
6HR MIN TEMP:  72; 6HR MAX TEMP:  82; 6HR PCP:  0.20;

PERU/GRISSOM   MOCLDY    77  71  82 W9        29.85S
6HR MIN TEMP:  77; 6HR MAX TEMP:  82; 6HR PCP:  0.10;

MARION*        PTCLDY    78  67  69 SW10G16   29.87R
6HR MIN TEMP:  40; 6HR MAX TEMP:  88;


$$
INZ028>050-020100-
CENTRAL INDIANA

CITY           SKY/WX    TMP DP  RH WIND       PRES   REMARKS
LAFAYETTE      CLEAR     77  65  66 SW6       29.86R
6HR MIN TEMP:  77; 6HR MAX TEMP:  83;

KOKOMO*        MOCLDY    79  68  69 W15       29.86R
6HR MIN TEMP:  79; 6HR MAX TEMP:  82;

MUNCIE*        PTCLDY    80  68  66 SW12      29.87S
6HR MIN TEMP:  79; 6HR MAX TEMP:  83; 6HR PCP:  0.04;

INDIANAPOLIS   MOCLDY    78  68  71 SW13      29.88R
6HR MIN TEMP:  78; 6HR MAX TEMP:  82;


$$
MIZ043>046-050>051-056>058-064>065-071>073-077>080-020100-
SOUTHWEST LOWER MICHIGAN

CITY           SKY/WX    TMP DP  RH WIND       PRES   REMARKS
BATTLE CREEK   MOCLDY    77  70  79 W8        29.79R
6HR MIN TEMP:  72; 6HR MAX TEMP:  80; 6HR PCP:  0.90;

BENTON HARBOR  CLEAR     76  66  71 W14       29.78R
6HR MIN TEMP:  73; 6HR MAX TEMP:  82; 6HR PCP: TRACE;

COLDWATER*     CLEAR     78  71  78 SW9       29.79S
6HR MIN TEMP:  74; 6HR MAX TEMP:  83;

HILLSDALE*     PTCLDY    77  72  84 SW8       29.81S
6HR MIN TEMP:  74; 6HR MAX TEMP:  84;

HOLLAND        CLEAR     76  66  71 W13       29.77R
6HR MIN TEMP:  76; 6HR MAX TEMP:  81; 6HR PCP: TRACE;

GRAND RAPIDS   MOCLDY    78  69  73 SW16G24   29.77R
6HR MIN TEMP:  74; 6HR MAX TEMP:  81; 6HR PCP:  0.24;

KALAMAZOO      PTCLDY    79  66  64 W10       29.79R
6HR MIN TEMP:  73; 6HR MAX TEMP:  82; 6HR PCP:  0.41;

STURGIS*         N/A     77  70  78 SW10      29.80R
THREE RIVERS*  FAIR      79  70  73 SW6       29.80R

$$
OHZ001>008-015>018-024>025-020100-
NORTHWEST OHIO

CITY           SKY/WX    TMP DP  RH WIND       PRES   REMARKS
WAUSEON*       FAIR      79  72  78 SW10G17   29.81S
DEFIANCE       PTCLDY    80  69  69 SW10      29.82R
6HR MIN TEMP:  80; 6HR MAX TEMP:  86; 6HR PCP: TRACE;

FINDLAY        CLOUDY    79  71  76 SW15G21   29.84S
6HR MIN TEMP:  77; 6HR MAX TEMP:  87; 6HR PCP:  0.02;

TOLEDO EXPRESS MOCLDY    79  69  71 SW10G23   29.81R
6HR MIN TEMP:  79; 6HR MAX TEMP:  87; 6HR PCP:  0.01;

TOLEDO METCALF CLOUDY    78  71  79 S10       29.82R
6HR MIN TEMP:  76; 6HR MAX TEMP:  88; 6HR PCP:  0.06;

LIMA           MOCLDY    80  70  71 SW10      29.86F
6HR MIN TEMP:  80; 6HR MAX TEMP:  88; 6HR PCP:  0.02;


$$
&&



USA.gov is the U.S. government's official web portal to all federal, state and local government web resources and services.